Home   Weather   Leicester   Past weeks
Flag for United Kingdom

Past Weather in Leicester, England, United Kingdom — Yesterday and Last 2 Weeks

Now
41 °F

Clear.


Feels Like: 37 °F
Forecast: N/A
Wind: 6 mph from Southwest

Location: East Midlands

Current Time: Jan 26, 2020 at 9:16:40 pm

Latest Report: Jan 26, 2020 at 8:20 pm


Visibility: 10 mi

Pressure: 29.62 "Hg

Humidity: 93%

Dew Point: 39 °F

Location of LeicesterLocation

Past Weather in Leicester — Graph

°F

Leicester Temperature Yesterday

Maximum temperature yesterday: 43 °F (at 12:20 am)
Minimum temperature yesterday: 41 °F (at 1:20 am)
Average temperature yesterday: 42 °F

High & Low Weather Summary for the Past Weeks

 TemperatureHumidityPressure
High57 °F (Jan 14, 3:50 pm)100% (Jan 11, 11:50 pm)30.95 "Hg (Jan 11, 11:50 pm)
Low28 °F (Jan 19, 3:50 am)66% (Jan 15, 1:50 pm)29.03 "Hg (Jan 14, 2:50 pm)
Average42 °F91%30.12 "Hg
* Reported Jan 11 7:20 pm — Jan 26 7:50 pm, Leicester. Weather by CustomWeather, © 2020

Note: Actual official high and low records may vary slightly from our data, if they occured in-between our weather recording intervals... More about our weather records

Leicester Weather History for the Previous 24 Hours

Scroll right to see more
 ConditionsComfort  
Time TempWeatherWind HumidityBarometerVisibility
7:50 pm
Sun, Jan 26
41 °FPassing clouds.7 mph100%29.62 "HgN/A
7:20 pm43 °FPassing clouds.5 mph93%29.62 "HgN/A
6:50 pm43 °FPassing clouds.5 mph93%29.62 "HgN/A
6:20 pm43 °FPassing clouds.3 mph93%29.62 "HgN/A
5:50 pm43 °FPassing clouds.5 mph93%29.62 "HgN/A
5:20 pm46 °FPassing clouds.9 mph93%29.62 "HgN/A
4:50 pm46 °FPartly cloudy.12 mph93%29.62 "HgN/A
4:20 pm46 °FLight rain. Broken clouds.12 mph93%29.62 "HgN/A
3:50 pm46 °FLight rain. Broken clouds.14 mph100%29.62 "HgN/A
3:20 pm46 °FRain. Broken clouds.16 mph100%29.62 "Hg3 mi
2:50 pm46 °FDrizzle. Broken clouds.17 mph100%29.62 "Hg3 mi
2:20 pm48 °FBroken clouds.18 mph87%29.62 "HgN/A
1:50 pm46 °FLight rain. Broken clouds.20 mph93%29.65 "HgN/A
1:20 pm46 °FRain. Broken clouds.18 mph93%29.65 "Hg5 mi
12:50 pm46 °FLight rain. Broken clouds.16 mph93%29.68 "Hg6 mi
12:20 pm46 °FLight rain. Broken clouds.18 mph87%29.68 "Hg6 mi
11:50 am46 °FLight rain. Scattered clouds.17 mph87%29.68 "HgN/A
11:20 am46 °FScattered clouds.18 mph87%29.71 "HgN/A
10:50 am46 °FPassing clouds.16 mph82%29.71 "HgN/A
10:20 am46 °FPassing clouds.18 mph82%29.71 "HgN/A
9:50 am45 °FPassing clouds.15 mph87%29.74 "HgN/A
9:20 am45 °FPassing clouds.15 mph87%29.74 "HgN/A
8:50 am43 °FPassing clouds.14 mph93%29.74 "HgN/A
8:20 am43 °FPassing clouds.15 mph93%29.74 "HgN/A
7:50 am45 °FPassing clouds.15 mph87%29.74 "HgN/A
7:20 am45 °FPassing clouds.13 mph93%29.77 "HgN/A
6:50 am45 °FPassing clouds.15 mph93%29.77 "HgN/A
6:20 am45 °FPassing clouds.14 mph93%29.77 "HgN/A
5:50 am45 °FPassing clouds.15 mph93%29.77 "HgN/A
5:20 am45 °FPassing clouds.15 mph93%29.77 "HgN/A
4:50 am45 °FMostly cloudy.14 mph93%29.77 "HgN/A
4:20 am45 °FPassing clouds.12 mph93%29.80 "HgN/A
3:50 am45 °FPassing clouds.14 mph93%29.80 "HgN/A
3:20 am45 °FLow clouds.13 mph93%29.80 "HgN/A
2:50 am45 °FPassing clouds.12 mph93%29.83 "HgN/A
2:20 am45 °FPartly cloudy.12 mph93%29.83 "HgN/A
1:50 am45 °FOvercast.10 mph93%29.83 "HgN/A
1:20 am43 °FMostly cloudy.12 mph100%29.83 "HgN/A
12:50 am43 °FLow clouds.9 mph100%29.86 "HgN/A
12:20 am43 °FLow clouds.10 mph93%29.86 "Hg4 mi
11:50 pm
Sat, Jan 25
43 °FPassing clouds.10 mph93%29.89 "HgN/A
11:20 pm43 °FPassing clouds.10 mph93%29.89 "Hg6 mi
10:50 pm43 °FPartly cloudy.13 mph93%29.89 "Hg4 mi
10:20 pm43 °FFog.9 mph100%29.89 "Hg3 mi
9:50 pm43 °FFog.10 mph100%29.92 "Hg2 mi
9:20 pm43 °FFog.10 mph100%29.92 "Hg2 mi
Weather by CustomWeather, © 2020

See weather overview

Advertising